Weather History for Eastsound, WA

Change the Weather History Date:

Saturday, April 6, 2013

  Actual Average (KBLI) Record (KBLI)
Temperature  
Mean Temperature 50 °F 47 °F  
Max Temperature 55 °F 55 °F 74 °F (2007)
Min Temperature 44 °F 39 °F 29 °F (1967)
Degree Days  
Heating Degree Days 16 18  
Month to date heating degree days 108  
Cooling Degree Days 0 0  
Month to date cooling degree days 0  
Year to date cooling degree days 0  
Moisture  
Dew Point 41 °F    
Average Humidity 73    
Maximum Humidity 93    
Minimum Humidity 47    
Precipitation  
Precipitation 0.00 in 0.10 in 0.68 in (1962)
Month to date precipitation 0.60  
Year to date precipitation 11.51  
Sea Level Pressure  
Sea Level Pressure 29.78 in    
Wind  
Wind Speed 9 mph (SSW)    
Max Wind Speed 17 mph    
Max Gust Speed 30 mph    
Visibility 10 miles    
Events Rain    
T = Trace of Precipitation, MM = Missing Value Source: NWS Daily Summary

Daily Weather History Graph

Daily Weather History Graph

Search for Another Location

Airport:

Trip Planner

Search our weather history database for the weather conditions in past years. The results will help you decide how hot, cold, wet, or windy it might be!

Date:

Astronomy

Apr. 06, 2013 Rise Set
Actual Time 6:38 AM PDT 7:50 PM PDT
Civil Twilight 6:06 AM PDT 8:22 PM PDT
Nautical Twilight 5:27 AM PDT 9:01 PM PDT
Astronomical Twilight 4:45 AM PDT 9:43 PM PDT
Moon 4:42 AM PDT (4/6) 4:09 PM PDT (4/6)
Length of Visible Light 14h 16m
Length of Day
13h 12m
Waning Crescent, 14% of the Moon is Illuminated
Apr 6
Waning Crescent
Apr 10
New
Apr 18
First Quarter
Apr 25
Full
May 2
Last Quarter

Hourly Weather History & Observations

Time (PDT) Temp. Windchill Dew Point Humidity Pressure Visibility Wind Dir Wind Speed Gust Speed Precip Events Conditions
12:15 AM 48.2 °F - 44.6 °F 87% 29.67 in 6.0 mi SSE 9.2 mph - N/A Rain Light Rain
12:35 AM 48.2 °F - 44.6 °F 87% 29.66 in 6.0 mi SSE 8.1 mph - N/A Rain Light Rain
12:55 AM 50.0 °F - 44.6 °F 82% 29.64 in 10.0 mi SE 11.5 mph 20.7 mph N/A   Partly Cloudy
1:15 AM 50.0 °F - 44.6 °F 82% 29.63 in 6.0 mi SSE 17.3 mph 26.5 mph N/A Rain Light Rain
1:35 AM 50.0 °F - 44.6 °F 82% 29.62 in 6.0 mi SE 17.3 mph 28.8 mph N/A Rain Light Rain
1:55 AM 50.0 °F - 44.6 °F 82% 29.60 in 10.0 mi SSE 13.8 mph 28.8 mph N/A Rain Light Rain
2:15 AM 51.8 °F - 42.8 °F 71% 29.59 in 10.0 mi SSE 13.8 mph 29.9 mph N/A   Clear
2:35 AM 51.8 °F - 44.6 °F 76% 29.59 in 10.0 mi SSE 10.4 mph 27.6 mph N/A   Clear
2:55 AM 51.8 °F - 44.6 °F 76% 29.59 in 10.0 mi SSE 11.5 mph 28.8 mph N/A   Partly Cloudy
3:15 AM 51.8 °F - 44.6 °F 76% 29.60 in 10.0 mi SSE 10.4 mph 23.0 mph N/A   Partly Cloudy
3:35 AM 51.8 °F - 44.6 °F 76% 29.62 in 10.0 mi South 10.4 mph 23.0 mph N/A   Scattered Clouds
3:55 AM 51.8 °F - 46.4 °F 82% 29.64 in 10.0 mi South 12.7 mph 24.2 mph N/A Rain Light Rain
4:15 AM 50.0 °F - 46.4 °F 87% 29.66 in 10.0 mi South 10.4 mph 19.6 mph N/A   Mostly Cloudy
4:35 AM 50.0 °F - 46.4 °F 87% 29.68 in 10.0 mi South 10.4 mph 17.3 mph N/A   Mostly Cloudy
4:55 AM 50.0 °F - 46.4 °F 87% 29.70 in 10.0 mi SSW 6.9 mph - N/A   Overcast
5:15 AM 50.0 °F - 41.0 °F 71% 29.72 in 10.0 mi SW 9.2 mph 20.7 mph N/A   Mostly Cloudy
5:35 AM 48.2 °F - 41.0 °F 76% 29.71 in 10.0 mi SSW 12.7 mph 24.2 mph N/A   Partly Cloudy
5:55 AM 48.2 °F - 39.2 °F 71% 29.71 in 10.0 mi SSW 13.8 mph 21.9 mph N/A   Clear
6:15 AM 48.2 °F - 39.2 °F 71% 29.71 in 10.0 mi SSW 13.8 mph 19.6 mph N/A   Clear
6:35 AM 48.2 °F - 39.2 °F 71% 29.72 in 10.0 mi SSW 9.2 mph 23.0 mph N/A   Clear
6:55 AM 48.2 °F - 39.2 °F 71% 29.73 in 10.0 mi SSW 13.8 mph 18.4 mph N/A   Clear
7:15 AM 48.2 °F - 39.2 °F 71% 29.73 in 10.0 mi SSW 9.2 mph - N/A   Partly Cloudy
7:35 AM 48.2 °F - 39.2 °F 71% 29.74 in 10.0 mi SW 11.5 mph 19.6 mph N/A   Clear
7:55 AM 48.2 °F - 39.2 °F 71% 29.75 in 10.0 mi SSW 10.4 mph 21.9 mph N/A   Clear
8:15 AM 48.2 °F - 39.2 °F 71% 29.75 in 10.0 mi SSW 5.8 mph - N/A   Partly Cloudy
8:35 AM 48.2 °F - 39.2 °F 71% 29.76 in 10.0 mi SSW 10.4 mph 17.3 mph N/A   Clear
8:55 AM 50.0 °F - 39.2 °F 66% 29.78 in 10.0 mi SW 12.7 mph 21.9 mph N/A   Partly Cloudy
9:15 AM 50.0 °F - 39.2 °F 66% 29.79 in 10.0 mi WSW 8.1 mph - N/A   Mostly Cloudy
9:35 AM 48.2 °F - 41.0 °F 76% 29.79 in 10.0 mi SW 10.4 mph 16.1 mph N/A   Partly Cloudy
9:55 AM 50.0 °F - 41.0 °F 71% 29.80 in 10.0 mi SSW 4.6 mph 18.4 mph N/A   Partly Cloudy
10:15 AM 50.0 °F - 41.0 °F 71% 29.81 in 10.0 mi SW 8.1 mph - N/A   Scattered Clouds
10:35 AM 50.0 °F - 41.0 °F 71% 29.82 in 10.0 mi SSW 13.8 mph 17.3 mph N/A   Mostly Cloudy
10:55 AM 50.0 °F - 39.2 °F 66% 29.83 in 9.0 mi WSW 8.1 mph 17.3 mph N/A   Partly Cloudy
11:15 AM 51.8 °F - 39.2 °F 62% 29.84 in 10.0 mi West 9.2 mph - N/A   Clear
11:35 AM 51.8 °F - 37.4 °F 58% 29.85 in 10.0 mi SW 8.1 mph - N/A   Partly Cloudy
11:55 AM 53.6 °F - 39.2 °F 58% 29.85 in 9.0 mi West 10.4 mph - N/A   Partly Cloudy
12:15 PM 51.8 °F - 37.4 °F 58% 29.85 in 10.0 mi SW 12.7 mph 17.3 mph N/A   Partly Cloudy
12:35 PM 53.6 °F - 37.4 °F 54% 29.85 in 10.0 mi WSW 8.1 mph 20.7 mph N/A   Clear
12:55 PM 53.6 °F - 37.4 °F 54% 29.85 in 10.0 mi WSW 9.2 mph 17.3 mph N/A   Clear
1:15 PM 51.8 °F - 35.6 °F 54% 29.85 in 10.0 mi WSW 8.1 mph 17.3 mph N/A   Clear
1:35 PM 53.6 °F - 35.6 °F 51% 29.85 in 10.0 mi SW 10.4 mph 18.4 mph N/A   Clear
1:55 PM 53.6 °F - 35.6 °F 51% 29.85 in 10.0 mi SW 10.4 mph - N/A   Clear
2:15 PM 53.6 °F - 35.6 °F 51% 29.86 in 10.0 mi WSW 9.2 mph 16.1 mph N/A   Clear
2:35 PM 55.4 °F - 35.6 °F 47% 29.86 in 9.0 mi West 6.9 mph - N/A   Clear
2:55 PM 53.6 °F - 35.6 °F 51% 29.86 in 10.0 mi WSW 8.1 mph - N/A   Clear
3:15 PM 55.4 °F - 37.4 °F 51% 29.85 in 10.0 mi West 10.4 mph - N/A   Partly Cloudy
3:35 PM 55.4 °F - 35.6 °F 47% 29.85 in 10.0 mi SW 6.9 mph - N/A   Partly Cloudy
3:55 PM 53.6 °F - 35.6 °F 51% 29.85 in 10.0 mi WSW 6.9 mph - N/A   Scattered Clouds
4:15 PM 53.6 °F - 37.4 °F 54% 29.85 in 10.0 mi Calm Calm - N/A   Mostly Cloudy
4:35 PM 53.6 °F - 37.4 °F 54% 29.86 in 10.0 mi SSE 4.6 mph - N/A   Scattered Clouds
5:15 PM 50.0 °F - 39.2 °F 66% 29.86 in 9.0 mi SSW 8.1 mph - N/A Rain Light Rain
5:35 PM 50.0 °F - 39.2 °F 66% 29.86 in 10.0 mi SW 5.8 mph - N/A   Scattered Clouds
5:55 PM 50.0 °F - 39.2 °F 66% 29.85 in 10.0 mi SSW 5.8 mph - N/A   Partly Cloudy
6:15 PM 50.0 °F - 39.2 °F 66% 29.86 in 10.0 mi South 3.5 mph - N/A   Scattered Clouds
6:35 PM 50.0 °F - 39.2 °F 66% 29.85 in 10.0 mi South 6.9 mph - N/A   Partly Cloudy
6:55 PM 48.2 °F - 41.0 °F 76% 29.85 in 9.0 mi SSW 6.9 mph - N/A Rain Light Rain
7:15 PM 48.2 °F - 44.6 °F 87% 29.85 in 9.0 mi Calm Calm - N/A   Scattered Clouds
7:35 PM 48.2 °F - 44.6 °F 87% 29.84 in 10.0 mi Calm Calm - N/A   Partly Cloudy
7:55 PM 48.2 °F - 44.6 °F 87% 29.84 in 10.0 mi South 4.6 mph - N/A   Scattered Clouds
8:15 PM 46.4 °F 42.9 °F 44.6 °F 93% 29.83 in 10.0 mi SSW 6.9 mph - N/A   Clear
8:35 PM 46.4 °F - 42.8 °F 87% 29.83 in 10.0 mi North - - N/A   Partly Cloudy
8:55 PM 46.4 °F - 42.8 °F 87% 29.83 in 10.0 mi Calm Calm - N/A   Mostly Cloudy
9:15 PM 44.6 °F - 42.8 °F 93% 29.83 in 10.0 mi North - - N/A   Mostly Cloudy
9:35 PM 44.6 °F - 42.8 °F 93% 29.83 in 10.0 mi Calm Calm - N/A   Partly Cloudy
9:55 PM 44.6 °F - 42.8 °F 93% 29.83 in 10.0 mi Calm Calm - N/A   Clear
10:15 PM 44.6 °F - 42.8 °F 93% 29.82 in 10.0 mi Calm Calm - N/A   Partly Cloudy
10:35 PM 44.6 °F - 42.8 °F 93% 29.82 in 10.0 mi North - - N/A   Mostly Cloudy
10:55 PM 44.6 °F - 42.8 °F 93% 29.81 in 10.0 mi Calm Calm - N/A   Mostly Cloudy
11:15 PM 46.4 °F - 41.0 °F 81% 29.80 in 10.0 mi Calm Calm - N/A   Mostly Cloudy
11:35 PM 44.6 °F 42.2 °F 42.8 °F 93% 29.79 in 10.0 mi East 4.6 mph - N/A   Overcast
11:55 PM 44.6 °F 40.7 °F 42.8 °F 93% 29.78 in 10.0 mi ENE 6.9 mph - N/A Rain Light Rain